Regional Weather Roundup
Issued by NWS Albany, NY

Home | Current Version | Previous Version | Graphics & Text | Print | Product List | Glossary Off
Versions: 1 2 3 4 5 6 7 8 9 10 11 12 13 14 15 16 17 18 19 20 21 22 23 24 25 26 27

000
ASUS41 KALY 091510
RWRALY

NEW YORK STATE HOURLY WEATHER ROUNDUP
NATIONAL WEATHER SERVICE ALBANY NY
1000 AM EST FRI DEC 09 2016

NOTE: "FAIR" INDICATES FEW OR NO CLOUDS BELOW 12,000 FEET WITH NO
SIGNIFICANT WEATHER AND/OR NO OBSTRUCTIONS TO VISIBILITY.

NYZ032-033-038>043-046>054-057>066-NYZ062>081-082-084-091600-
EAST


CITY           SKY/WX    TMP DP  RH WIND       PRES   REMARKS
ALBANY         MOSUNNY   30  16  56 NW21G28   30.06R WCI  17
GLENS FALLS    CLOUDY    32  13  45 NW13      30.04R WCI  22
POUGHKEEPSIE   MOSUNNY   35  16  45 NW13G23   30.08R WCI  26
NEWBURGH       MOSUNNY   32  23  69 W18       30.09R WCI  20
MONTGOMERY     PTSUNNY   34  21  59 NW12      30.08R WCI  25
WHITE PLAINS   MOSUNNY   34  20  56 NW21G28   30.07R WCI  22
ISLIP          MOSUNNY   37  19  48 NW23G31   30.08R WCI  26
NEW YORK CITY  MOSUNNY   37  20  50 NW17G29   30.11R WCI  27
CENTRAL PARK     N/A     37  18  44 MISG        N/A
$$

NYZ005>009-017-018-044>046-055-056-091600-
CENTRAL


CITY           SKY/WX    TMP DP  RH WIND       PRES   REMARKS
FULTON         PTSUNNY   28  14  55 NW17G24   30.16R WCI  16
SYRACUSE       PTSUNNY   26  14  60 NW17G28   30.15R WCI  13
ROME           LGT SNOW  24  19  81 NW15      30.13R WCI  11
ELMIRA         SUNNY     31  14  49 NW17G23   30.15R WCI  19
BINGHAMTON     CLOUDY    24  17  74 NW12G22   30.07R WCI  13
MONTICELLO     MOSUNNY   27  21  80 W10G18    30.06R WCI  17
$$

NYZ026>034-041>043-087-091600-
NORTH


CITY           SKY/WX    TMP DP  RH WIND       PRES   REMARKS
WATERTOWN      MOSUNNY   25  13  60 NW15      30.16R WCI  13
FORT DRUM      NOT AVBL
OGDENSBURG     FAIR      26  15  61 NW16G24   30.12R WCI  14
MASSENA        SUNNY     24  12  60 W18G28    30.10R WCI  10
SARANAC LAKE   LGT SNOW  17  10  74 W10       29.95R WCI   5
PLATTSBURGH    MOSUNNY   26  12  55 VRB6G20   30.03R WCI  19
$$

NYZ001>004-010>016-019>021-085-091600-
WEST


CITY           SKY/WX    TMP DP  RH WIND       PRES   REMARKS
NIAGARA FALLS  LGT SNOW  26  20  77 N12       30.25R VSB 3/4 WCI  16
BUFFALO        FLURRIES  27  16  63 NW14G20   30.24R WCI  16
DUNKIRK        MIX PCPN  28  18  66 NW14G25   30.26R WCI  17
JAMESTOWN      CLOUDY    25  19  80 N9        30.17R VSB 1   WCI  15
WELLSVILLE     LGT SNOW  24  17  74 NW10G23   30.12R WCI  14
ROCHESTER      PTSUNNY   26  15  63 NW17G23   30.22R WCI  13
PENN YAN       FLURRIES  27  18  69 NW12      30.16R WCI  17
$$

             KEY
       WCI = WIND CHILL INDEX
       VSB = VISIBILITY
       HX  = HEAT INDEX
$$




USA.gov is the U.S. government's official web portal to all federal, state and local government web resources and services.